Location: Kitt Peak
(31.9639°N, 111.5992°W)
Time: 19:49:23
(UTC-07:00)

Hubble Space Telescope - Visible Passes

Search period start: 03 July 2020 00:00
Search period end: 13 July 2020 00:00
Orbit: 536 x 539 km, 28.5° (Epoch: 03 July)

Date Brightness Start Highest point End Pass type
(mag) Time Alt. Az. Time Alt. Az. Time Alt. Az.
03 Jul 2.1 03:22:11 28° SE 03:22:11 28° SE 03:24:28 10° ESE visible
04 Jul 3.0 03:12:51 15° SE 03:12:51 15° SE 03:13:39 10° SE visible
04 Jul 2.6 04:48:20 10° WSW 04:50:34 14° SSW 04:52:48 10° S visible
05 Jul 2.8 04:39:08 11° SW 04:39:47 11° SSW 04:41:02 10° S visible
06 Jul 3.0 21:31:25 10° SW 21:32:01 13° SW 21:32:01 13° SW visible
07 Jul 2.1 21:20:29 10° SW 21:22:47 25° SSW 21:22:47 25° SSW visible
08 Jul 1.4 21:09:36 10° SW 21:13:19 35° S 21:13:19 35° S visible
09 Jul 1.2 20:58:47 10° WSW 21:02:40 40° S 21:03:38 34° SE visible
10 Jul 1.1 20:48:00 10° WSW 20:51:56 44° S 20:53:46 27° ESE visible
10 Jul 3.5 22:28:55 10° W 22:29:06 11° W 22:29:06 11° W visible
11 Jul 1.0 20:37:14 10° WSW 20:41:13 48° S 20:43:45 20° ESE visible
11 Jul 3.2 22:18:14 10° W 22:19:05 15° WSW 22:19:05 15° WSW visible
12 Jul 1.0 20:26:30 10° WSW 20:30:30 51° S 20:33:37 16° ESE visible
12 Jul 2.8 22:07:33 10° W 22:08:57 19° WSW 22:08:57 19° WSW visible
